Find Starlink 34817

NORAD ID: 65362 Int'l Des: 2025-190 Owner: SPXS Country: US Constellation: starlink operational
LEOCIRCULAR

当前视图

正在加载3D地球...

关于 Starlink 34817

正在加载描述...

即将过境

Passes for default location (London). Set your location on the main map for personalized predictions.

高度历史

Loading altitude history...

两行轨道根数

1 65362U 25190M 26150.01169495 .00028676 00000-0 85645-3 0 9998
2 65362 53.1578 149.8976 0001361 118.5792 241.5348 15.34405772 42215
Epoch: May 30, 2026 • Age: 9 hours

当前状态

高度 474.0 km
速度 7.63 km/s
星下点 -34.92°S, 24.49°W
发射日期 Aug 28, 2025
运行时间 0.7 years
类型 internet

技术详情

分类 Payload
质量 575.00 kg
干质量 530.00 kg
总质量 575.00 kg
长度 0.30 m
直径 4.10 m
跨度 29.00 m
形状 Box + pan
制造商 SPXS
平台类型 Starlink V2MO
阶段状态 In Orbit
所有者/国家 SPXS/US

Most Searched